Location: Bobcat Ridge
(40.4796°N, 105.2255°W)
Time: 11:59:10

ISS - Pass Details

Date: 25 February 2018
Orbit: 403 x 406 km, 51.6° (Epoch: 18 March)

Event Time Altitude Azimuth Distance (km) Brightness Sun altitude
Rises 05:16:41 0° 184° (S) 2,305 -0.1 -16.7°
Reaches altitude 10° 05:19:55 10° 149° (SSE) 1,451 -0.7 -16.1°
Maximum altitude 05:21:03 11° 129° (SE) 1,371 -0.4 -15.9°
Drops below altitude 10° 05:22:11 10° 108° (ESE) 1,454 0.1 -15.7°
Sets 05:25:26 0° 73° (ENE) 2,318 1.6 -15.0°
